SCP
0 0 -0 -0 0 -0 -0 -0 -0 -0 0 0 0 0 0 0 0 0 0 0 0 0 0 0 0 0 0 0 0 0 0 0 0 0 -0 -0 -0 -0 -0 -0 0 0 0
0 0 0 0 -0 -0 -0 -0 -0 -0 -0 -0 0 0 0 0 0 0 0 0 0 0 0 0 0 0 0 0 0 0 0 0 0 0 0 -0 -0 -0 -0 -0 -0 -0 0
0 0 0 0 0 0 0 0 0 0 0 0 0 0 0 0 0 0 0 0 0 0 0 0 0 0 0 0 0 0 0 0 0 0 0 0 0 0 -0 0 -0 0 0
0 0 0 0 0 0 0 0 0 0 0 0 0 0 0 0 0 0 0 0 0 0 0 0 0 0 0 0 0 0 0 0 0 0 0 0 0 0 -0 -0 0 0 0
0 0 0 0 0 0 0 0 0 0 0 0 0 0 0 0 0 0 0 0 0 0 0 0 0 0 0 0 0 0 0 0 0 0 0 0 0 0 0 -0 0 0 0
0 0 0 0 0 0 0 0 0 0 0 0 0 0 0 0 0 0 0 0 0 0 0 0 0 0 0 0 0 0 0 0 0 0 0 0 0 0 0 0 0 0 0
0 0 0 0 0 0 0 0 0 0 0 0 0 0 0 0 0 0 0 0 0 0 0 0 0 0 0 0 0 0 0 0 0 0 0 0 0 0 0 0 0 0 0
0 0 0 0 0 0 0 0 0 0 0 0 0 0 0 0 0 0 0 0 0 0 0 0 0 0 0 0 0 0 0 0 0 0 0 0 0 0 0 0 0 0 0
0 0 0 0 0 0 0 0 0 0 0 0 0 0 0 0 0 0 0 0 0 0 0 0 0 0 0 0 0 0 0 0 0 0 0 0 0 0 0 0 0 0 0
0 0 0 0 0 0 0 0 0 0 0 0 0 0 0 0 0 0 0 0 0 0 0 0 0 0 0 0 0 0 0 0 0 0 0 0 0 0 0 0 0 0 0
0 0 0 0 0 0 0 0 0 0 -0 0 0 0 0 0 0 0 0 0 0 0 0 0 0 0 0 0 0 0 0 0 0 0 0 0 0 0 0 0 0 0 0
0 0 0 0 0 0 0 0 0 0 0 -0 0 0 0 0 0 0 0 0 0 0 0 0 0 0 0 0 0 0 0 0 0 0 0 0 0 0 0 0 0 0 0
0 0 0 0 0 0 0 0 0 0 0 0 0 0 0 0 0 0 0 0 0 0 0 0 0 0 0 0 0 0 0 0 0 0 0 0 0 0 0 0 0 0 0
0 0 0 0 0 0 0 0 0 0 0 0 0 0 0 0 0 0 0 0 0 0 0 0 0 0 0 0 0 0 0 0 0 0 0 0 0 0 0 0 0 0 0
0 0 0 0 0 0 0 0 0 0 0 0 0 0 0 0 0 0 0 0 0 0 0 0 0 0 0 0 0 0 0 0 0 0 0 0 0 0 0 0 0 0 0
0 0 0 0 0 0 0 0 0 0 0 0 0 0 0 0 0 0 0 0 0 0 0 0 0 0 0 0 0 0 0 0 0 0 0 0 0 0 0 0 0 0 0
0 0 0 0 0 0 0 0 0 0 0 0 0 0 0 0 0 0 0 0 0 0 0 0 0 0 0 0 0 0 0 0 0 0 0 0 0 0 0 0 0 0 0
0 0 0 0 0 0 0 0 0 0 0 0 0 0 0 0 0 0 0 0 0 0 0 0 0 0 0 0 0 0 0 0 0 0 0 0 0 0 0 0 0 0 0
0 0 0 0 0 0 0 0 0 0 0 0 0 0 0 0 0 0 0 0 0 0 0 0 0 0 0 0 0 0 0 0 0 0 0 0 0 0 0 0 0 0 0
0 0 0 0 0 0 0 0 0 0 0 0 0 0 0 0 0 0 0 0 0 0 0 0 0 0 0 0 0 0 0 0 0 0 0 0 0 0 0 0 0 0 0
0 0 0 0 0 0 0 0 0 0 0 0 0 0 0 0 0 0 0 0 0 0 0 0 0 0 0 0 0 0 0 0 0 0 0 0 0 0 0 0 0 0 0
0 0 0 0 0 0 0 0 0 0 0 0 0 0 0 0 0 0 0 0 0 0 0 0 0 0 0 0 0 0 0 0 0 0 0 0 0 0 0 0 0 0 0
0 0 0 0 0 0 0 0 0 0 0 0 0 0 0 0 0 0 0 0 0 0 0 0 0 0 0 0 0 0 0 0 0 0 0 0 0 0 0 0 0 0 0
0 0 0 0 0 0 0 0 0 0 0 0 0 0 0 0 0 0 0 0 0 0 0 0 0 0 0 0 0 0 0 0 0 0 0 0 0 0 0 0 0 0 0
0 0 0 0 0 0 0 0 0 0 0 0 0 0 0 0 0 0 0 0 0 0 0 0 0 0 0 0 0 0 0 0 0 0 0 0 0 0 0 0 0 0 0
0 0 0 0 0 0 0 0 0 0 0 0 0 0 0 0 0 0 0 0 0 0 0 0 0 0 0 0 0 0 0 0 0 0 0 0 0 0 0 0 0 0 0
Wind_Speed_500mb
29 24 22 16 13 9 5 4 5 7 6 1 5 9 11 12 12 9 10 13 17 18 16 14 9 5 8 8 8 8 7 10 12 15 19 18 17 22 24 25 26 24 19
26 22 22 18 15 11 10 12 15 14 12 10 9 8 6 5 5 9 7 7 6 12 16 15 12 7 5 4 8 7 9 8 11 10 11 17 16 13 20 24 21 22 23
21 19 18 19 13 11 11 16 18 19 17 15 14 14 13 16 15 16 14 12 6 3 5 9 14 13 8 12 6 9 10 10 9 10 12 16 13 15 15 21 20 20 20
17 16 14 18 14 11 13 15 11 11 11 12 16 18 19 21 22 22 22 20 19 17 17 21 23 20 16 13 13 13 12 11 10 14 12 13 12 15 16 14 18 18 20
13 11 11 13 10 10 13 12 11 13 14 15 18 19 23 23 25 28 28 28 29 29 29 32 31 24 20 19 21 16 17 15 15 17 19 20 13 17 17 14 15 14 17
13 11 9 9 8 11 14 12 13 15 17 20 23 25 30 31 31 32 34 30 32 31 35 35 32 31 25 23 21 20 19 21 25 24 21 23 26 26 23 24 20 18 18
8 7 5 6 5 10 14 14 17 19 21 24 26 26 29 32 32 32 35 30 33 34 36 35 33 35 33 28 25 25 24 24 28 26 28 27 24 25 31 28 30 30 26
13 11 7 7 6 5 14 18 18 18 23 26 26 27 30 33 34 34 35 33 34 32 36 34 31 31 30 26 26 24 21 25 26 29 30 32 27 29 28 32 30 25 30
13 11 8 5 5 4 5 14 20 22 24 27 31 30 31 31 33 33 34 31 31 29 30 27 25 26 25 23 21 21 21 19 20 24 22 21 20 24 22 15 9 17 6
13 10 6 3 2 6 10 10 23 30 29 31 33 35 32 32 33 32 31 31 29 27 26 25 23 21 22 20 19 18 17 14 14 20 20 13 11 10 7 9 14 18 12
14 9 7 5 0 8 15 16 20 29 35 34 32 34 32 31 31 31 30 28 26 22 21 20 19 17 16 15 16 15 10 8 8 11 8 2 2 6 17 20 13 16 1
10 4 1 6 12 15 17 23 25 25 28 29 30 31 31 29 28 29 28 28 26 24 21 19 16 12 9 9 9 8 12 12 12 9 9 24 15 22 24 30 37 38 9
5 3 5 10 13 15 16 18 20 20 21 21 22 22 22 25 26 27 26 25 24 23 20 18 15 11 7 5 1 3 8 13 14 16 16 13 30 30 33 36 37 29 14
9 9 10 11 12 14 15 14 13 14 16 17 18 21 23 25 25 25 26 27 25 23 20 17 16 16 13 12 10 8 9 10 13 15 20 14 14 26 30 38 34 33 25
10 9 8 7 6 6 5 7 13 13 14 17 18 19 19 20 22 23 24 24 24 23 21 19 18 17 17 17 15 12 10 10 9 8 9 19 21 11 28 34 40 37 33
12 11 9 5 2 2 8 11 10 12 13 15 15 16 18 19 21 22 23 23 21 20 18 16 16 15 16 15 14 13 12 10 8 6 4 8 14 16 11 35 41 41 40
15 12 9 6 2 5 6 6 8 10 12 14 15 17 18 19 20 21 22 21 21 20 17 15 15 14 16 19 20 21 20 20 17 13 11 14 17 4 4 26 36 39 39
17 14 10 5 4 4 4 5 7 10 12 14 15 17 18 19 20 21 20 20 22 18 14 12 13 12 17 19 24 28 26 24 23 21 19 19 21 23 19 20 24 36 36
18 15 12 10 8 7 7 6 6 8 9 10 13 14 15 17 18 19 20 22 22 18 13 12 12 12 17 21 24 26 25 24 22 21 18 18 19 20 21 21 20 20 28
21 20 18 16 14 13 9 7 5 5 7 10 11 12 15 16 18 19 20 22 22 19 16 13 10 12 14 17 18 18 20 22 21 18 17 16 14 15 18 18 18 19 22
27 25 22 20 17 14 12 9 6 4 5 6 8 11 13 15 17 18 19 20 22 19 20 16 11 10 10 11 9 9 10 13 16 18 17 14 12 11 12 13 16 18 19
26 26 27 24 22 19 16 11 8 7 5 5 7 10 11 14 16 17 19 20 22 22 20 19 14 9 4 2 2 3 2 4 7 9 14 13 12 12 11 11 14 17 19
32 28 28 26 24 23 21 16 12 10 7 5 6 8 11 14 15 17 18 20 20 20 19 18 16 12 11 13 8 1 1 1 3 4 8 13 13 13 13 13 14 17 22
32 30 31 31 29 27 23 18 14 11 7 6 7 8 10 12 13 15 17 17 17 18 17 16 17 14 14 10 10 9 9 8 4 3 7 11 15 15 16 15 17 19 23
38 31 29 33 32 30 26 22 20 16 12 11 10 10 10 11 12 11 13 13 14 15 15 16 15 14 13 13 12 11 10 9 10 4 2 10 15 16 20 18 19 21 25
43 39 34 34 34 33 30 27 25 21 16 15 13 12 11 9 9 9 9 10 11 12 12 13 14 14 14 13 13 12 12 11 12 11 11 17 16 17 19 16 21 24 27
Wind_Direction_500mb
179 185 186 195 211 217 224 258 279 289 260 208 99 97 70 57 23 5 40 42 32 16 10 348 312 323 336 350 356 354 8 19 27 36 27 19 26 37 37 34 33 29 29
180 185 188 198 212 233 257 278 267 267 256 254 278 289 286 284 293 322 304 339 11 25 359 328 326 285 248 324 325 334 332 341 1 358 13 9 8 9 23 21 24 25 21
172 180 184 203 217 239 266 285 296 295 294 271 267 269 271 275 271 282 296 285 265 264 314 327 308 299 278 251 257 286 281 304 298 303 318 333 350 354 340 5 10 16 11
167 174 179 203 214 244 268 293 308 319 322 310 297 294 291 289 293 297 296 291 287 272 259 269 280 300 295 276 254 246 249 244 275 282 289 284 310 328 331 336 347 0 7
162 171 191 205 223 249 279 295 307 313 313 307 299 300 299 301 301 299 297 295 290 288 283 281 283 282 277 270 267 270 262 264 265 260 270 276 280 299 315 288 314 325 336
158 171 185 193 237 275 290 297 305 309 308 305 305 309 306 303 300 298 294 295 290 287 281 284 287 289 275 275 282 274 263 256 252 260 269 268 277 285 296 295 283 286 301
148 160 180 207 251 291 301 309 314 315 312 310 313 314 314 314 313 307 302 302 294 287 284 284 287 285 286 286 284 276 270 259 251 256 260 259 280 284 284 286 284 276 282
163 165 174 195 224 292 317 317 316 318 316 313 315 319 321 319 316 313 310 306 302 301 296 290 288 285 285 285 281 280 277 267 265 260 261 267 272 282 294 297 289 280 274
173 168 169 183 199 141 40 343 334 337 334 331 329 332 333 330 328 326 323 322 317 314 309 306 294 286 283 281 276 279 281 287 280 277 276 285 290 287 291 309 293 284 329
182 177 166 132 352 21 27 2 340 336 337 338 337 336 340 339 337 334 334 332 325 319 314 310 303 293 283 278 274 273 274 274 271 280 278 314 328 332 331 85 109 89 125
181 176 179 168 292 352 358 355 360 348 343 342 340 338 342 343 341 340 339 339 338 336 329 322 315 308 294 280 266 259 247 278 266 266 268 193 350 36 115 118 142 97 42
182 190 324 11 357 359 350 354 345 340 332 340 338 338 339 344 348 350 349 351 351 349 348 348 347 340 318 294 284 255 235 235 236 229 153 91 101 92 94 90 83 80 43
196 250 295 318 334 344 347 351 341 349 347 348 350 354 356 3 8 8 10 9 10 7 5 7 13 15 19 40 63 195 186 194 205 211 165 151 80 73 79 76 72 61 39
238 282 310 327 343 357 1 356 -0 13 24 16 19 18 20 18 16 17 18 19 19 23 30 35 39 49 66 77 93 108 132 143 144 161 174 205 190 76 74 63 51 48 5
261 285 294 313 340 355 14 36 45 43 38 36 30 25 21 17 14 18 18 19 21 28 34 45 57 66 74 82 88 92 102 110 125 151 205 201 219 174 61 57 54 51 46
249 254 264 264 241 45 43 44 39 40 39 35 26 19 17 16 15 16 18 20 25 32 44 60 69 69 74 73 78 81 84 93 104 126 188 275 251 244 58 58 59 58 54
228 239 228 217 175 74 63 61 52 44 39 30 21 19 17 15 18 22 21 25 30 38 52 70 78 73 70 72 77 81 83 85 85 83 72 57 55 71 79 65 63 60 57
228 221 220 208 179 150 124 84 63 48 37 27 26 23 21 23 25 28 28 35 42 46 60 76 85 77 77 81 83 81 77 77 75 69 65 63 62 59 57 58 60 63 60
217 220 218 204 191 178 160 127 86 58 43 32 32 31 33 35 39 40 41 48 51 53 75 86 94 82 86 88 86 82 74 67 62 60 53 51 51 49 49 50 46 48 55
214 214 209 205 198 187 166 145 119 80 54 45 42 42 44 46 48 48 49 54 57 60 76 94 97 97 97 96 89 82 73 61 52 48 46 44 43 43 43 40 38 36 36
208 209 210 208 203 190 182 169 148 112 88 75 67 61 59 59 61 61 63 65 69 70 75 89 94 103 107 101 96 80 70 54 35 37 37 34 35 35 31 28 27 27 26
205 206 209 207 202 195 191 187 183 171 158 118 90 82 79 77 75 76 75 74 73 68 74 81 87 86 101 188 275 295 274 313 341 30 31 23 20 14 359 1 10 13 13
201 203 207 206 203 201 204 201 199 196 181 152 121 107 99 95 91 86 83 82 79 81 81 84 86 84 68 59 62 284 291 323 306 277 355 7 2 351 340 338 339 348 355
194 197 202 204 205 206 208 205 198 204 212 198 165 140 127 114 105 99 92 88 86 82 81 82 79 74 68 64 60 57 55 46 35 247 277 331 335 338 333 324 332 335 342
196 198 200 202 204 207 209 206 204 206 215 212 196 174 152 138 126 111 102 95 89 86 78 72 67 62 55 44 42 42 32 28 22 4 246 318 327 323 331 316 322 325 331
200 200 201 203 204 207 209 208 206 210 217 219 211 199 180 166 147 131 113 97 82 69 65 60 51 44 37 35 32 27 21 17 8 6 344 338 343 336 327 316 317 321 326
Wind_Speed_850mb
29 24 22 16 13 9 5 4 5 7 6 1 5 9 11 12 12 9 10 13 17 18 16 14 9 5 8 8 8 8 7 10 12 15 19 18 17 22 24 25 26 24 19
26 22 22 18 15 11 10 12 15 14 12 10 9 8 6 5 5 9 7 7 6 12 16 15 12 7 5 4 8 7 9 8 11 10 11 17 16 13 20 24 21 22 23
21 19 18 19 13 11 11 16 18 19 17 15 14 14 13 16 15 16 14 12 6 3 5 9 14 13 8 12 6 9 10 10 9 10 12 16 13 15 15 21 20 20 20
17 16 14 18 14 11 13 15 11 11 11 12 16 18 19 21 22 22 22 20 19 17 17 21 23 20 16 13 13 13 12 11 10 14 12 13 12 15 16 14 18 18 20
13 11 11 13 10 10 13 12 11 13 14 15 18 19 23 23 25 28 28 28 29 29 29 32 31 24 20 19 21 16 17 15 15 17 19 20 13 17 17 14 15 14 17
13 11 9 9 8 11 14 12 13 15 17 20 23 25 30 31 31 32 34 30 32 31 35 35 32 31 25 23 21 20 19 21 25 24 21 23 26 26 23 24 20 18 18
8 7 5 6 5 10 14 14 17 19 21 24 26 26 29 32 32 32 35 30 33 34 36 35 33 35 33 28 25 25 24 24 28 26 28 27 24 25 31 28 30 30 26
13 11 7 7 6 5 14 18 18 18 23 26 26 27 30 33 34 34 35 33 34 32 36 34 31 31 30 26 26 24 21 25 26 29 30 32 27 29 28 32 30 25 30
13 11 8 5 5 4 5 14 20 22 24 27 31 30 31 31 33 33 34 31 31 29 30 27 25 26 25 23 21 21 21 19 20 24 22 21 20 24 22 15 9 17 6
13 10 6 3 2 6 10 10 23 30 29 31 33 35 32 32 33 32 31 31 29 27 26 25 23 21 22 20 19 18 17 14 14 20 20 13 11 10 7 9 14 18 12
14 9 7 5 0 8 15 16 20 29 35 34 32 34 32 31 31 31 30 28 26 22 21 20 19 17 16 15 16 15 10 8 8 11 8 2 2 6 17 20 13 16 1
10 4 1 6 12 15 17 23 25 25 28 29 30 31 31 29 28 29 28 28 26 24 21 19 16 12 9 9 9 8 12 12 12 9 9 24 15 22 24 30 37 38 9
5 3 5 10 13 15 16 18 20 20 21 21 22 22 22 25 26 27 26 25 24 23 20 18 15 11 7 5 1 3 8 13 14 16 16 13 30 30 33 36 37 29 14
9 9 10 11 12 14 15 14 13 14 16 17 18 21 23 25 25 25 26 27 25 23 20 17 16 16 13 12 10 8 9 10 13 15 20 14 14 26 30 38 34 33 25
10 9 8 7 6 6 5 7 13 13 14 17 18 19 19 20 22 23 24 24 24 23 21 19 18 17 17 17 15 12 10 10 9 8 9 19 21 11 28 34 40 37 33
12 11 9 5 2 2 8 11 10 12 13 15 15 16 18 19 21 22 23 23 21 20 18 16 16 15 16 15 14 13 12 10 8 6 4 8 14 16 11 35 41 41 40
15 12 9 6 2 5 6 6 8 10 12 14 15 17 18 19 20 21 22 21 21 20 17 15 15 14 16 19 20 21 20 20 17 13 11 14 17 4 4 26 36 39 39
17 14 10 5 4 4 4 5 7 10 12 14 15 17 18 19 20 21 20 20 22 18 14 12 13 12 17 19 24 28 26 24 23 21 19 19 21 23 19 20 24 36 36
18 15 12 10 8 7 7 6 6 8 9 10 13 14 15 17 18 19 20 22 22 18 13 12 12 12 17 21 24 26 25 24 22 21 18 18 19 20 21 21 20 20 28
21 20 18 16 14 13 9 7 5 5 7 10 11 12 15 16 18 19 20 22 22 19 16 13 10 12 14 17 18 18 20 22 21 18 17 16 14 15 18 18 18 19 22
27 25 22 20 17 14 12 9 6 4 5 6 8 11 13 15 17 18 19 20 22 19 20 16 11 10 10 11 9 9 10 13 16 18 17 14 12 11 12 13 16 18 19
26 26 27 24 22 19 16 11 8 7 5 5 7 10 11 14 16 17 19 20 22 22 20 19 14 9 4 2 2 3 2 4 7 9 14 13 12 12 11 11 14 17 19
32 28 28 26 24 23 21 16 12 10 7 5 6 8 11 14 15 17 18 20 20 20 19 18 16 12 11 13 8 1 1 1 3 4 8 13 13 13 13 13 14 17 22
32 30 31 31 29 27 23 18 14 11 7 6 7 8 10 12 13 15 17 17 17 18 17 16 17 14 14 10 10 9 9 8 4 3 7 11 15 15 16 15 17 19 23
38 31 29 33 32 30 26 22 20 16 12 11 10 10 10 11 12 11 13 13 14 15 15 16 15 14 13 13 12 11 10 9 10 4 2 10 15 16 20 18 19 21 25
43 39 34 34 34 33 30 27 25 21 16 15 13 12 11 9 9 9 9 10 11 12 12 13 14 14 14 13 13 12 12 11 12 11 11 17 16 17 19 16 21 24 27
Wind_Direction_850mb
179 185 186 195 211 217 224 258 279 289 260 208 99 97 70 57 23 5 40 42 32 16 10 348 312 323 336 350 356 354 8 19 27 36 27 19 26 37 37 34 33 29 29
180 185 188 198 212 233 257 278 267 267 256 254 278 289 286 284 293 322 304 339 11 25 359 328 326 285 248 324 325 334 332 341 1 358 13 9 8 9 23 21 24 25 21
172 180 184 203 217 239 266 285 296 295 294 271 267 269 271 275 271 282 296 285 265 264 314 327 308 299 278 251 257 286 281 304 298 303 318 333 350 354 340 5 10 16 11
167 174 179 203 214 244 268 293 308 319 322 310 297 294 291 289 293 297 296 291 287 272 259 269 280 300 295 276 254 246 249 244 275 282 289 284 310 328 331 336 347 0 7
162 171 191 205 223 249 279 295 307 313 313 307 299 300 299 301 301 299 297 295 290 288 283 281 283 282 277 270 267 270 262 264 265 260 270 276 280 299 315 288 314 325 336
158 171 185 193 237 275 290 297 305 309 308 305 305 309 306 303 300 298 294 295 290 287 281 284 287 289 275 275 282 274 263 256 252 260 269 268 277 285 296 295 283 286 301
148 160 180 207 251 291 301 309 314 315 312 310 313 314 314 314 313 307 302 302 294 287 284 284 287 285 286 286 284 276 270 259 251 256 260 259 280 284 284 286 284 276 282
163 165 174 195 224 292 317 317 316 318 316 313 315 319 321 319 316 313 310 306 302 301 296 290 288 285 285 285 281 280 277 267 265 260 261 267 272 282 294 297 289 280 274
173 168 169 183 199 141 40 343 334 337 334 331 329 332 333 330 328 326 323 322 317 314 309 306 294 286 283 281 276 279 281 287 280 277 276 285 290 287 291 309 293 284 329
182 177 166 132 352 21 27 2 340 336 337 338 337 336 340 339 337 334 334 332 325 319 314 310 303 293 283 278 274 273 274 274 271 280 278 314 328 332 331 85 109 89 125
181 176 179 168 292 352 358 355 360 348 343 342 340 338 342 343 341 340 339 339 338 336 329 322 315 308 294 280 266 259 247 278 266 266 268 193 350 36 115 118 142 97 42
182 190 324 11 357 359 350 354 345 340 332 340 338 338 339 344 348 350 349 351 351 349 348 348 347 340 318 294 284 255 235 235 236 229 153 91 101 92 94 90 83 80 43
196 250 295 318 334 344 347 351 341 349 347 348 350 354 356 3 8 8 10 9 10 7 5 7 13 15 19 40 63 195 186 194 205 211 165 151 80 73 79 76 72 61 39
238 282 310 327 343 357 1 356 -0 13 24 16 19 18 20 18 16 17 18 19 19 23 30 35 39 49 66 77 93 108 132 143 144 161 174 205 190 76 74 63 51 48 5
261 285 294 313 340 355 14 36 45 43 38 36 30 25 21 17 14 18 18 19 21 28 34 45 57 66 74 82 88 92 102 110 125 151 205 201 219 174 61 57 54 51 46
249 254 264 264 241 45 43 44 39 40 39 35 26 19 17 16 15 16 18 20 25 32 44 60 69 69 74 73 78 81 84 93 104 126 188 275 251 244 58 58 59 58 54
228 239 228 217 175 74 63 61 52 44 39 30 21 19 17 15 18 22 21 25 30 38 52 70 78 73 70 72 77 81 83 85 85 83 72 57 55 71 79 65 63 60 57
228 221 220 208 179 150 124 84 63 48 37 27 26 23 21 23 25 28 28 35 42 46 60 76 85 77 77 81 83 81 77 77 75 69 65 63 62 59 57 58 60 63 60
217 220 218 204 191 178 160 127 86 58 43 32 32 31 33 35 39 40 41 48 51 53 75 86 94 82 86 88 86 82 74 67 62 60 53 51 51 49 49 50 46 48 55
214 214 209 205 198 187 166 145 119 80 54 45 42 42 44 46 48 48 49 54 57 60 76 94 97 97 97 96 89 82 73 61 52 48 46 44 43 43 43 40 38 36 36
208 209 210 208 203 190 182 169 148 112 88 75 67 61 59 59 61 61 63 65 69 70 75 89 94 103 107 101 96 80 70 54 35 37 37 34 35 35 31 28 27 27 26
205 206 209 207 202 195 191 187 183 171 158 118 90 82 79 77 75 76 75 74 73 68 74 81 87 86 101 188 275 295 274 313 341 30 31 23 20 14 359 1 10 13 13
201 203 207 206 203 201 204 201 199 196 181 152 121 107 99 95 91 86 83 82 79 81 81 84 86 84 68 59 62 284 291 323 306 277 355 7 2 351 340 338 339 348 355
194 197 202 204 205 206 208 205 198 204 212 198 165 140 127 114 105 99 92 88 86 82 81 82 79 74 68 64 60 57 55 46 35 247 277 331 335 338 333 324 332 335 342
196 198 200 202 204 207 209 206 204 206 215 212 196 174 152 138 126 111 102 95 89 86 78 72 67 62 55 44 42 42 32 28 22 4 246 318 327 323 331 316 322 325 331
200 200 201 203 204 207 209 208 206 210 217 219 211 199 180 166 147 131 113 97 82 69 65 60 51 44 37 35 32 27 21 17 8 6 344 338 343 336 327 316 317 321 326